Temp
16 14 14 14 15 15 16 16 16 17 17 17 15 14 14 14 13 12 13 12 12 14 15 15 14 14 14 13 13 13 12 12 12 12 12 12 12 12 12 11 11 11 12 11
14 14 16 16 16 16 17 16 16 16 16 15 14 14 15 13 14 14 13 13 15 15 15 15 15 14 15 14 14 13 13 13 13 13 13 12 12 12 11 11 11 11 11 10
14 16 16 16 16 16 16 16 15 15 15 15 15 15 15 15 15 15 15 17 16 16 16 15 15 15 15 15 15 14 14 13 13 13 12 12 12 11 11 11 11 11 10 9
15 15 16 16 16 15 15 16 16 15 15 14 16 14 14 14 14 14 15 14 16 16 16 17 16 16 15 15 14 14 13 12 12 13 12 12 12 12 12 11 11 10 9 9
16 16 15 15 15 16 15 15 15 16 15 15 15 13 14 14 14 15 15 15 16 17 17 17 17 17 16 15 15 14 13 13 13 12 12 12 12 11 11 11 10 9 9 8
16 16 15 16 17 16 17 16 13 12 12 13 15 14 13 13 15 16 15 16 17 17 17 17 17 16 16 15 15 14 14 13 13 12 12 12 11 10 11 11 10 9 8 8
16 16 17 17 17 16 15 13 12 12 11 13 14 14 14 16 16 15 15 17 18 18 17 17 17 16 16 15 15 15 14 13 12 12 11 12 10 10 10 10 10 9 9 9
13 14 16 17 17 16 15 14 11 15 11 11 13 14 16 16 16 16 17 18 18 17 17 17 18 17 16 16 16 16 14 14 13 11 11 12 10 10 10 11 10 10 9 8
13 15 15 15 16 17 15 14 14 11 9 8 12 13 15 15 16 15 15 15 17 17 17 18 18 17 16 16 17 16 16 15 14 12 13 12 10 11 10 11 10 9 9 9
14 15 15 15 16 16 16 14 13 10 14 13 12 13 13 15 15 15 13 16 15 16 16 17 18 17 17 17 17 16 16 15 14 13 12 11 11 11 11 11 10 9 8 7
13 14 14 15 14 14 14 14 12 12 10 12 10 12 12 15 15 17 15 16 17 17 17 17 17 17 17 16 16 16 15 15 14 13 13 12 11 11 11 11 9 8 7 6
14 12 11 14 15 15 14 13 12 10 13 9 7 10 14 13 13 15 17 18 18 18 18 18 17 17 17 16 16 16 16 15 15 13 13 12 12 11 11 11 9 7 6 4
13 12 12 13 13 14 15 14 12 10 8 10 8 11 14 13 13 15 16 19 19 19 18 18 17 18 18 17 16 15 16 15 14 13 12 12 11 10 10 8 7 6 5 5
15 11 12 13 13 13 14 14 12 12 8 11 9 13 14 14 13 14 17 18 18 18 18 18 18 17 17 16 15 16 15 15 14 13 11 9 8 8 6 5 5 4 3 1
13 13 12 13 14 14 15 15 12 12 12 12 13 11 13 13 12 13 15 17 16 17 18 18 17 16 15 14 15 15 14 13 12 10 9 7 6 5 7 4 3 2 2 1
11 13 13 14 13 14 15 14 12 13 13 12 12 12 11 13 13 12 13 14 15 15 15 15 15 14 14 14 13 12 11 10 9 8 7 6 6 5 3 2 2 0 0 -1
11 9 9 12 11 12 10 11 12 13 12 12 11 12 10 11 10 9 11 12 12 13 14 15 14 13 13 12 11 10 10 9 8 7 6 5 4 3 1 1 0 0 -0 -0
9 9 6 7 7 9 13 12 12 12 12 12 11 11 10 9 8 9 10 11 12 13 13 13 13 13 12 11 10 9 8 7 6 5 4 3 2 1 0 -0 -1 0 -0 -1
9 7 7 8 8 10 13 12 11 12 12 10 9 8 8 9 9 8 10 11 12 12 12 12 12 12 11 10 8 7 6 5 4 3 2 1 0 -0 -1 -0 0 -0 -1 -0
8 6 8 4 8 9 10 12 13 13 10 10 9 7 7 9 8 6 8 9 10 10 11 11 10 9 8 7 6 6 4 3 3 1 1 0 1 0 -0 -0 -0 -0 -1 -1
6 4 7 2 6 7 9 12 14 11 10 10 11 10 9 8 8 8 7 8 9 9 9 8 7 6 6 4 4 4 3 2 1 1 0 0 -0 -1 -1 -1 -1 -1 -1 -1
10 8 5 3 5 10 11 11 11 10 12 12 11 11 10 10 8 7 7 8 7 7 6 5 5 4 3 3 3 2 2 1 0 0 -0 -1 -1 -1 -1 -1 -2 -2 -2 -2
9 10 9 9 9 10 12 12 14 14 13 12 13 12 12 11 8 7 6 6 5 4 4 3 3 2 1 1 1 1 -0 -0 -0 -1 -1 -1 -1 -1 -2 -2 -2 -2 -2 -3
9 9 9 9 9 8 10 11 12 13 14 13 13 13 12 11 8 6 5 4 3 3 3 2 2 1 1 0 -1 -1 -0 -1 -1 -1 -1 -1 -1 -1 -2 -2 -2 -3 -3 -4
9 9 7 7 7 7 8 9 11 12 12 12 12 12 11 11 6 5 3 3 2 2 1 1 1 0 -0 -2 -1 -1 -1 -1 -1 -1 -1 -2 -2 -2 -2 -2 -3 -3 -4 -5
8 8 8 10 11 11 10 11 10 11 11 11 11 9 8 8 7 4 2 2 1 1 0 0 -1 -1 -1 -1 -1 -1 -1 -1 -1 -1 -2 -2 -2 -2 -3 -3 -3 -4 -5 -6
Height
1492 1498 1504 1501 1496 1494 1496 1499 1503 1494 1491 1495 1495 1494 1494 1498 1501 1500 1500 1503 1505 1505 1510 1514 1517 1519 1522 1525 1528 1531 1533 1536 1539 1542 1544 1547 1549 1552 1553 1557 1558 1561 1563 1564
1497 1501 1492 1491 1495 1497 1495 1499 1501 1496 1493 1497 1494 1493 1491 1494 1493 1493 1494 1498 1499 1502 1506 1510 1513 1515 1517 1520 1523 1526 1529 1533 1536 1539 1542 1545 1548 1550 1553 1554 1556 1560 1561 1562
1497 1492 1489 1491 1494 1496 1496 1498 1499 1501 1494 1493 1493 1495 1491 1489 1489 1490 1492 1491 1495 1497 1501 1505 1507 1510 1513 1515 1518 1522 1525 1529 1533 1536 1539 1542 1544 1547 1549 1551 1554 1556 1559 1560
1493 1487 1488 1490 1493 1495 1502 1492 1493 1495 1498 1507 1494 1511 1495 1488 1486 1485 1486 1487 1489 1493 1497 1501 1503 1505 1508 1512 1517 1521 1524 1526 1529 1532 1535 1537 1539 1541 1545 1549 1551 1553 1555 1556
1490 1486 1489 1492 1491 1489 1495 1488 1493 1492 1496 1500 1499 1510 1493 1487 1488 1482 1479 1481 1483 1486 1490 1493 1496 1500 1505 1510 1513 1517 1521 1524 1526 1529 1532 1534 1536 1539 1542 1545 1547 1549 1551 1553
1484 1482 1484 1484 1483 1485 1486 1490 1496 1500 1505 1516 1499 1507 1500 1490 1478 1471 1473 1475 1476 1481 1485 1489 1494 1498 1501 1506 1511 1514 1516 1519 1523 1526 1528 1529 1531 1535 1539 1540 1542 1545 1548 1550
1486 1483 1480 1481 1484 1484 1487 1497 1519 1521 1526 1518 1499 1504 1490 1474 1471 1469 1467 1467 1469 1474 1478 1483 1487 1491 1496 1500 1505 1508 1512 1515 1519 1522 1523 1525 1528 1532 1534 1536 1538 1540 1542 1543
1497 1499 1481 1478 1481 1487 1489 1493 1518 1513 1529 1521 1498 1500 1483 1468 1467 1464 1461 1462 1464 1468 1472 1477 1480 1484 1488 1494 1499 1502 1507 1511 1511 1515 1518 1520 1524 1527 1530 1532 1533 1534 1537 1539
1494 1490 1476 1478 1478 1481 1490 1496 1494 1515 1524 1530 1508 1491 1472 1465 1463 1461 1462 1461 1460 1463 1466 1470 1475 1479 1483 1488 1493 1496 1500 1505 1507 1510 1513 1516 1519 1521 1524 1526 1528 1530 1531 1529
1477 1488 1477 1477 1477 1479 1482 1486 1502 1512 1511 1516 1510 1502 1494 1472 1468 1464 1460 1459 1462 1463 1465 1468 1471 1475 1478 1483 1489 1494 1496 1500 1502 1505 1508 1511 1514 1517 1519 1521 1522 1523 1525 1527
1471 1480 1486 1479 1479 1482 1488 1491 1496 1501 1513 1516 1526 1506 1477 1470 1464 1462 1462 1462 1462 1463 1464 1467 1470 1473 1477 1481 1485 1489 1494 1497 1499 1501 1504 1506 1509 1511 1512 1514 1517 1519 1520 1523
1464 1478 1491 1480 1472 1470 1474 1481 1488 1510 1504 1515 1523 1506 1465 1464 1462 1462 1460 1461 1462 1463 1464 1466 1469 1472 1475 1478 1482 1486 1489 1493 1494 1496 1499 1501 1503 1504 1506 1507 1511 1515 1518 1522
1463 1478 1492 1486 1480 1475 1476 1477 1481 1490 1500 1505 1520 1500 1465 1464 1462 1460 1460 1459 1461 1462 1463 1465 1467 1469 1472 1475 1478 1482 1487 1489 1492 1494 1496 1496 1499 1500 1502 1505 1508 1513 1516 1518
1451 1468 1473 1484 1476 1471 1476 1473 1475 1480 1503 1494 1497 1480 1469 1464 1464 1459 1458 1457 1458 1460 1461 1463 1464 1466 1468 1471 1476 1480 1482 1484 1487 1489 1491 1494 1495 1498 1502 1505 1511 1511 1512 1514
1451 1464 1465 1462 1460 1463 1465 1465 1474 1476 1474 1482 1475 1480 1468 1462 1461 1458 1456 1455 1456 1457 1457 1459 1462 1464 1468 1469 1473 1476 1478 1480 1482 1484 1487 1491 1497 1499 1501 1507 1508 1507 1508 1509
1450 1459 1458 1462 1462 1462 1463 1462 1466 1465 1466 1470 1469 1471 1459 1458 1458 1457 1456 1454 1455 1455 1456 1458 1460 1464 1466 1468 1470 1472 1475 1478 1481 1484 1487 1493 1497 1499 1501 1505 1504 1507 1508 1512
1449 1459 1469 1470 1470 1467 1481 1466 1461 1456 1455 1456 1468 1458 1455 1457 1458 1458 1457 1456 1456 1456 1457 1458 1460 1462 1464 1467 1470 1472 1475 1478 1481 1485 1490 1493 1495 1499 1503 1503 1505 1507 1507 1507
1450 1456 1469 1481 1482 1491 1454 1450 1452 1453 1449 1449 1451 1451 1452 1454 1457 1458 1457 1458 1457 1458 1460 1461 1462 1463 1465 1467 1470 1473 1476 1479 1482 1486 1490 1493 1496 1499 1501 1502 1503 1503 1502 1501
1440 1453 1472 1477 1480 1465 1450 1451 1452 1453 1450 1444 1447 1450 1452 1454 1456 1459 1458 1458 1459 1460 1462 1462 1464 1465 1466 1469 1471 1474 1478 1482 1485 1488 1491 1494 1498 1499 1500 1501 1501 1499 1499 1499
1444 1445 1457 1482 1477 1478 1452 1438 1438 1441 1456 1439 1441 1446 1448 1453 1461 1459 1459 1459 1460 1462 1463 1464 1466 1467 1470 1472 1475 1478 1481 1485 1488 1492 1494 1496 1497 1498 1498 1498 1497 1497 1495 1494
1457 1461 1462 1484 1475 1460 1437 1436 1437 1458 1448 1429 1434 1438 1444 1449 1450 1452 1457 1459 1461 1463 1464 1466 1468 1470 1473 1476 1479 1481 1485 1489 1491 1493 1495 1495 1495 1496 1495 1495 1494 1492 1491 1488
1438 1452 1464 1474 1474 1456 1429 1436 1443 1430 1424 1427 1432 1437 1442 1445 1448 1451 1455 1458 1461 1463 1465 1468 1469 1473 1477 1481 1483 1485 1488 1490 1492 1493 1493 1493 1493 1493 1492 1491 1489 1488 1485 1482
1436 1428 1437 1438 1436 1422 1421 1421 1422 1423 1422 1425 1428 1435 1440 1443 1447 1451 1453 1457 1461 1464 1467 1470 1472 1475 1479 1481 1484 1486 1487 1490 1490 1490 1491 1491 1491 1490 1488 1487 1484 1482 1480 1476
1422 1421 1427 1429 1422 1419 1419 1419 1420 1420 1421 1424 1426 1432 1438 1441 1446 1450 1454 1457 1461 1465 1468 1472 1474 1477 1480 1483 1484 1486 1487 1488 1489 1488 1488 1488 1487 1486 1484 1482 1479 1476 1473 1469
1415 1416 1421 1423 1418 1423 1416 1414 1416 1418 1423 1426 1428 1431 1437 1442 1447 1451 1455 1459 1463 1466 1469 1473 1475 1478 1480 1482 1484 1485 1486 1486 1486 1486 1485 1484 1482 1480 1477 1475 1472 1468 1466 1462
1406 1407 1413 1408 1399 1404 1403 1408 1413 1417 1421 1426 1428 1430 1437 1441 1444 1450 1456 1460 1463 1467 1470 1473 1475 1478 1480 1483 1484 1484 1484 1484 1483 1482 1480 1478 1476 1473 1470 1466 1463 1462 1458 1455
Wind_Speed
1 4 3 7 5 8 5 4 2 4 6 3 8 7 8 18 14 18 23 23 27 30 31 27 22 26 27 28 26 26 24 24 25 25 25 25 24 22 19 17 15 14 13 15
4 3 4 3 2 4 2 2 4 6 2 5 5 7 4 12 18 25 29 29 29 27 28 32 30 29 33 30 27 26 25 25 27 26 26 24 22 22 19 18 17 16 16 16
5 5 4 5 4 3 3 4 3 5 3 2 1 5 4 7 15 22 27 31 31 32 30 31 33 33 34 32 30 28 27 26 28 27 27 25 25 24 23 22 21 19 18 16
4 3 4 4 5 6 5 5 3 4 0 1 0 3 5 5 8 9 23 30 34 34 33 33 34 36 37 34 31 30 31 31 32 32 31 30 30 30 28 24 19 19 20 18
6 4 4 4 6 5 8 4 5 3 1 3 2 3 7 3 6 12 17 29 38 38 38 38 39 40 39 36 33 32 33 33 35 34 33 33 33 29 22 18 20 21 21 19
4 2 5 6 3 5 0 3 4 4 3 1 2 4 5 5 8 6 7 26 37 39 41 41 40 39 39 38 35 35 37 36 36 35 37 36 35 26 24 22 22 24 23 20
2 3 2 3 1 1 3 5 3 4 3 5 2 1 9 1 5 9 12 30 41 41 42 43 43 42 40 40 35 36 36 39 38 36 39 39 30 27 25 21 22 24 23 23
6 4 6 3 4 4 1 5 4 2 2 4 5 4 5 4 8 9 14 24 36 38 42 43 45 45 44 40 38 39 38 34 38 40 38 31 27 23 19 19 20 23 24 25
5 5 2 2 2 3 2 2 3 6 2 2 4 7 9 4 4 6 5 7 20 31 40 44 44 44 44 42 40 40 40 36 34 34 28 28 28 24 23 22 24 24 26 30
8 0 1 2 3 1 1 6 3 3 1 4 4 5 5 8 6 6 8 7 5 14 24 33 40 42 42 40 38 35 37 30 25 29 30 29 23 24 25 27 29 29 30 32
5 5 3 1 5 7 3 1 4 4 4 4 1 5 7 7 5 3 4 6 8 11 16 22 29 33 36 36 34 31 30 28 25 22 24 24 26 28 30 30 31 31 30 31
6 5 5 9 1 4 5 8 6 4 4 1 3 6 5 9 6 5 7 6 5 7 10 15 18 22 28 29 27 29 28 24 23 24 25 28 30 32 32 33 32 28 27 22
8 1 1 7 5 3 3 4 4 5 3 7 5 6 3 7 8 11 13 11 10 10 12 14 16 17 19 23 28 30 22 23 26 27 30 32 32 33 33 29 27 21 20 21
11 4 7 9 8 5 4 6 6 6 4 4 6 6 9 8 7 11 12 15 14 14 17 18 19 22 23 26 27 23 24 24 25 29 32 30 31 30 25 20 16 17 12 10
6 7 6 5 4 6 6 5 8 7 6 7 7 8 9 6 6 10 13 14 13 16 17 22 23 22 21 23 22 21 23 25 28 29 28 28 27 23 15 18 14 12 10 5
2 5 4 4 1 0 3 7 8 5 3 5 5 6 7 2 3 5 4 3 3 3 4 9 15 17 20 22 21 20 19 19 18 21 24 23 21 16 15 13 11 7 7 11
8 7 4 4 2 4 5 8 9 7 6 8 8 11 6 3 3 3 6 8 10 11 10 6 2 4 9 12 13 15 16 17 18 18 19 18 14 12 9 9 10 11 11 22
6 6 3 4 2 1 7 1 4 8 5 5 4 2 4 9 10 9 8 9 11 10 9 8 6 4 2 5 9 12 15 17 16 16 14 14 13 13 14 7 7 18 26 15
2 5 3 5 4 4 4 4 7 8 9 7 6 7 13 18 11 8 8 9 10 9 9 7 5 2 3 6 9 11 12 13 16 19 18 16 13 8 10 16 21 12 13 16
4 6 4 3 5 8 8 4 7 4 6 7 11 10 12 13 4 3 7 9 10 9 7 6 5 5 5 8 8 11 15 19 19 17 12 7 10 17 16 8 11 14 18 20
3 3 5 2 3 7 7 3 10 5 8 13 25 26 22 5 4 15 13 12 10 9 9 9 10 10 11 12 12 17 19 17 12 5 8 13 8 6 9 12 15 17 18 21
7 7 3 3 2 6 11 5 9 8 4 21 24 27 22 11 14 18 15 13 12 12 14 14 16 19 19 16 13 16 11 4 6 5 2 2 5 7 10 12 14 17 20 24
3 5 6 9 7 3 20 5 16 7 9 21 27 25 22 19 20 20 18 16 16 18 20 20 20 23 19 15 10 6 3 2 1 2 4 6 8 11 14 18 21 24 27 30
4 5 3 2 4 5 11 15 11 15 18 24 25 25 23 22 23 22 21 23 23 23 22 19 18 17 13 8 4 3 2 2 3 5 7 10 13 17 20 23 26 29 30 32
5 7 6 3 5 8 12 14 15 16 18 22 22 23 22 20 23 23 25 26 25 23 20 17 14 9 7 5 4 3 1 3 6 8 12 16 19 22 26 28 30 32 31 30
7 8 6 8 15 11 10 21 22 23 24 23 24 23 21 21 24 26 27 26 24 21 18 13 9 6 9 6 2 1 4 7 11 14 17 21 24 27 29 32 34 32 32 31
Wind_Direction
23 73 215 233 210 181 164 173 200 290 315 235 241 224 188 192 189 179 197 206 209 205 202 208 209 209 204 210 213 214 209 209 208 205 209 215 222 224 225 228 227 227 232 230
28 250 208 167 206 251 129 34 279 286 278 189 305 263 173 181 204 197 195 206 211 217 215 213 213 213 216 219 219 218 214 218 219 220 221 225 226 226 229 228 222 226 232 227
161 227 129 166 201 233 254 214 257 252 322 204 126 311 189 211 215 212 213 215 215 216 215 217 211 210 211 213 217 219 219 222 227 226 223 224 225 224 222 224 226 234 224 220
229 260 211 191 225 160 257 211 218 274 351 281 74 276 265 229 222 215 209 215 222 223 222 218 215 215 216 216 219 223 225 228 231 229 226 229 233 230 235 232 237 224 216 215
239 179 183 194 220 158 238 165 227 216 121 50 323 74 267 151 231 233 220 213 223 226 224 220 220 221 221 220 222 226 229 233 232 229 230 233 237 236 233 243 233 220 217 215
227 180 161 204 209 174 51 139 52 51 84 82 251 153 282 207 223 240 219 223 228 227 227 228 227 226 228 226 227 228 231 234 233 230 231 234 234 226 234 244 228 218 216 219
321 215 232 194 82 68 121 59 352 1 19 220 266 104 239 293 255 233 219 223 229 230 228 227 227 228 229 229 228 229 231 238 236 233 232 237 233 231 237 241 222 217 222 229
172 302 176 186 178 193 91 135 152 254 224 272 298 236 259 209 283 293 249 238 235 228 230 229 228 230 232 232 231 232 231 238 247 237 237 242 232 236 232 231 225 228 229 234
147 264 140 210 117 142 196 114 164 105 40 39 262 296 309 350 315 331 349 227 222 227 229 230 232 235 236 236 235 236 235 235 250 246 244 241 233 226 226 229 231 231 235 239
199 195 272 158 167 109 190 156 73 14 191 269 298 292 246 314 312 324 333 310 230 230 229 232 234 236 238 240 241 239 239 246 252 244 246 242 232 225 229 234 237 237 235 235
142 129 271 291 187 186 134 181 66 121 140 179 269 268 221 256 266 287 268 276 258 240 232 230 234 238 239 240 240 238 236 244 249 241 237 226 226 229 234 240 241 236 234 233
197 146 185 205 301 162 172 189 153 141 207 152 157 273 260 249 282 261 278 287 275 234 231 231 233 235 237 240 239 234 236 246 240 231 229 228 233 234 237 238 237 230 234 225
183 175 75 340 359 17 191 200 138 110 78 188 148 259 305 294 291 286 276 266 257 250 224 218 219 221 226 230 230 231 243 247 239 229 230 232 238 232 228 225 215 225 227 248
141 143 165 205 214 157 191 198 176 148 132 187 217 261 291 293 296 289 283 264 259 252 242 233 229 228 229 230 230 239 244 244 243 238 233 229 222 212 204 207 229 229 219 190
147 191 179 223 196 181 206 203 169 193 190 172 238 196 255 266 277 282 281 282 263 249 241 240 240 239 240 241 242 249 244 241 242 244 233 220 205 201 243 227 210 208 247 259
194 203 140 191 29 88 213 228 186 199 180 250 239 252 226 257 288 337 322 178 110 90 262 254 250 249 248 251 252 251 247 246 242 228 217 206 209 228 211 220 231 230 195 232
152 139 120 226 29 91 328 227 209 208 193 173 197 219 165 156 120 57 59 102 93 85 85 92 128 232 244 250 252 248 242 229 217 213 201 207 206 205 189 175 188 198 291 303
145 118 97 169 57 168 243 306 286 228 239 221 279 201 179 143 119 99 98 99 94 86 83 86 88 97 155 222 224 219 207 203 199 193 183 175 170 164 162 197 267 291 294 296
146 125 108 143 189 290 287 203 175 184 261 194 181 152 145 142 117 70 94 106 104 104 97 85 76 97 178 194 196 194 182 179 176 163 160 159 158 180 240 273 295 303 295 291
71 68 123 149 154 206 230 241 163 106 276 194 162 169 163 164 135 205 147 124 114 109 107 112 119 135 144 148 159 167 156 156 154 149 153 185 249 298 305 303 293 294 295 296
68 23 154 132 199 285 248 191 140 129 241 178 181 175 171 172 170 152 154 141 130 124 124 126 124 125 124 132 149 145 144 144 148 173 259 301 308 303 299 298 302 304 304 304
160 152 172 92 76 268 171 115 167 212 184 183 183 180 176 160 148 151 152 145 141 138 133 131 129 120 120 129 141 133 138 153 261 292 332 316 304 305 304 304 304 303 304 303
227 186 182 182 209 224 185 202 215 227 191 183 181 184 192 170 162 162 154 150 145 140 137 135 133 131 132 135 138 158 166 166 267 270 285 297 300 302 304 305 305 306 306 305
221 164 132 82 229 223 227 227 226 201 196 182 182 181 184 176 170 164 158 152 147 144 141 141 142 135 127 133 147 146 190 243 280 303 309 309 308 307 307 307 309 309 311 310
220 146 158 232 229 288 246 220 209 190 183 176 173 178 180 179 170 169 160 155 152 149 148 149 144 146 139 138 169 165 215 297 308 312 312 313 314 315 316 315 317 317 318 320
197 179 173 229 196 190 208 193 180 174 172 176 177 171 178 184 174 169 160 158 157 156 154 156 148 132 143 163 181 284 309 313 317 319 320 321 322 321 321 321 320 321 321 323